Time,TemperatureF,DewpointF,PressureIn,WindDirection,WindDirectionDegrees,WindSpeedMPH,WindSpeedGustMPH,Humidity,HourlyPrecipIn,Conditions,Clouds,dailyrainin,SoftwareType,DateUTC
2013-03-15 00:00:00,21.2,9.9,29.87,West,264,3.0,7.0,61,0.00,,,0.00,WeatherCatV1.02B3,2013-03-15 04:00:00,
2013-03-15 00:01:00,21.2,9.9,29.87,West,279,5.0,9.0,61,0.00,,,0.00,WeatherCatV1.02B3,2013-03-15 04:01:00,
2013-03-15 00:06:00,21.2,10.2,29.87,West,273,5.0,10.0,62,0.00,,,0.00,WeatherCatV1.02B3,2013-03-15 04:06:00,
2013-03-15 00:11:00,21.2,10.2,29.87,West,274,5.0,12.0,62,0.00,,,0.00,WeatherCatV1.02B3,2013-03-15 04:11:00,
2013-03-15 00:16:00,21.2,10.2,29.87,West,275,1.0,9.0,62,0.00,,,0.00,WeatherCatV1.02B3,2013-03-15 04:16:00,
2013-03-15 00:21:00,21.2,10.6,29.87,NW,314,1.0,4.0,63,0.00,,,0.00,WeatherCatV1.02B3,2013-03-15 04:21:00,
2013-03-15 00:26:00,21.1,10.5,29.87,West,281,2.0,6.0,63,0.00,,,0.00,WeatherCatV1.02B3,2013-03-15 04:26:00,
2013-03-15 00:31:00,21.1,10.5,29.87,West,276,10.0,10.0,63,0.00,,,0.00,WeatherCatV1.02B3,2013-03-15 04:31:00,
2013-03-15 00:36:00,21.1,10.9,29.87,WNW,287,5.0,5.0,64,0.00,,,0.00,WeatherCatV1.02B3,2013-03-15 04:36:00,
2013-03-15 00:41:00,21.0,10.8,29.87,West,270,4.0,5.0,64,0.00,,,0.00,WeatherCatV1.02B3,2013-03-15 04:41:00,
2013-03-15 00:46:00,21.0,10.8,29.87,NW,315,4.0,11.0,64,0.00,,,0.00,WeatherCatV1.02B3,2013-03-15 04:46:00,
2013-03-15 00:51:00,21.0,11.1,29.87,WSW,253,0.0,7.0,65,0.00,,,0.00,WeatherCatV1.02B3,2013-03-15 04:51:00,
2013-03-15 00:56:00,21.0,11.1,29.87,West,279,2.0,10.0,65,0.00,,,0.00,WeatherCatV1.02B3,2013-03-15 04:56:00,
2013-03-15 01:01:00,20.9,11.4,29.87,West,264,3.0,9.0,66,0.00,,,0.00,WeatherCatV1.02B3,2013-03-15 05:01:00,
2013-03-15 01:06:00,20.9,11.4,29.87,WNW,298,5.0,9.0,66,0.00,,,0.00,WeatherCatV1.02B3,2013-03-15 05:06:00,
2013-03-15 01:11:00,20.8,11.6,29.87,West,274,5.0,11.0,67,0.00,,,0.00,WeatherCatV1.02B3,2013-03-15 05:11:00,
2013-03-15 01:16:00,20.9,11.7,29.88,WSW,253,5.0,10.0,67,0.00,,,0.00,WeatherCatV1.02B3,2013-03-15 05:16:00,
2013-03-15 01:21:00,21.0,11.8,29.87,West,281,7.0,11.0,67,0.00,,,0.00,WeatherCatV1.02B3,2013-03-15 05:21:00,
2013-03-15 01:26:00,21.1,11.9,29.87,West,281,8.0,12.0,67,0.00,,,0.00,WeatherCatV1.02B3,2013-03-15 05:26:00,
2013-03-15 01:31:00,21.1,11.9,29.88,West,278,4.0,5.0,67,0.00,,,0.00,WeatherCatV1.02B3,2013-03-15 05:31:00,
2013-03-15 01:36:00,21.0,12.1,29.88,NW,322,7.0,10.0,68,0.00,,,0.00,WeatherCatV1.02B3,2013-03-15 05:36:00,
2013-03-15 01:41:00,21.1,12.2,29.88,West,267,6.0,14.0,68,0.00,,,0.00,WeatherCatV1.02B3,2013-03-15 05:41:00,
2013-03-15 01:46:00,21.1,12.2,29.88,WNW,303,6.0,8.0,68,0.00,,,0.00,WeatherCatV1.02B3,2013-03-15 05:46:00,
2013-03-15 01:51:00,21.2,12.3,29.88,WNW,293,5.0,10.0,68,0.00,,,0.00,WeatherCatV1.02B3,2013-03-15 05:51:00,
2013-03-15 01:56:00,21.2,12.3,29.88,WNW,298,3.0,12.0,68,0.00,,,0.00,WeatherCatV1.02B3,2013-03-15 05:56:00,
2013-03-15 02:01:00,21.3,12.4,29.88,WNW,285,5.0,9.0,68,0.00,,,0.00,WeatherCatV1.02B3,2013-03-15 06:01:00,
2013-03-15 02:06:00,21.3,12.4,29.88,West,278,0.0,7.0,68,0.00,,,0.00,WeatherCatV1.02B3,2013-03-15 06:06:00,
2013-03-15 02:11:00,21.3,12.4,29.88,West,275,2.0,7.0,68,0.00,,,0.00,WeatherCatV1.02B3,2013-03-15 06:11:00,
2013-03-15 02:16:00,21.4,12.5,29.88,West,275,5.0,5.0,68,0.00,,,0.00,WeatherCatV1.02B3,2013-03-15 06:16:00,
2013-03-15 02:21:00,21.4,12.2,29.88,West,271,0.0,4.0,67,0.00,,,0.00,WeatherCatV1.02B3,2013-03-15 06:21:00,
2013-03-15 02:26:00,21.5,12.3,29.88,West,271,1.0,1.0,67,0.00,,,0.00,WeatherCatV1.02B3,2013-03-15 06:26:00,
2013-03-15 02:31:00,21.4,12.2,29.88,WNW,286,3.0,5.0,67,0.00,,,0.00,WeatherCatV1.02B3,2013-03-15 06:31:00,
2013-03-15 02:36:00,21.4,12.2,29.88,WNW,282,0.0,5.0,67,0.00,,,0.00,WeatherCatV1.02B3,2013-03-15 06:36:00,
2013-03-15 02:41:00,21.3,12.1,29.88,WNW,283,2.0,6.0,67,0.00,,,0.00,WeatherCatV1.02B3,2013-03-15 06:41:00,
2013-03-15 02:46:00,21.3,11.7,29.88,WNW,283,0.0,5.0,66,0.00,,,0.00,WeatherCatV1.02B3,2013-03-15 06:46:00,
2013-03-15 02:51:00,21.2,11.6,29.88,NW,309,0.0,11.0,66,0.00,,,0.00,WeatherCatV1.02B3,2013-03-15 06:51:00,
2013-03-15 02:56:00,21.1,11.9,29.88,NW,309,0.0,6.0,67,0.00,,,0.00,WeatherCatV1.02B3,2013-03-15 06:56:00,
2013-03-15 03:01:00,21.1,11.5,29.88,West,272,4.0,7.0,66,0.00,,,0.00,WeatherCatV1.02B3,2013-03-15 07:01:00,
2013-03-15 03:06:00,21.0,11.5,29.88,NNW,338,4.0,10.0,66,0.00,,,0.00,WeatherCatV1.02B3,2013-03-15 07:06:00,
2013-03-15 03:11:00,21.0,11.5,29.87,West,262,0.0,7.0,66,0.00,,,0.00,WeatherCatV1.02B3,2013-03-15 07:11:00,
2013-03-15 03:16:00,21.0,11.5,29.88,WNW,296,2.0,5.0,66,0.00,,,0.00,WeatherCatV1.02B3,2013-03-15 07:16:00,
2013-03-15 03:21:00,21.0,11.1,29.88,West,275,9.0,14.0,65,0.00,,,0.00,WeatherCatV1.02B3,2013-03-15 07:21:00,
2013-03-15 03:26:00,21.1,11.2,29.87,WNW,296,4.0,10.0,65,0.00,,,0.00,WeatherCatV1.02B3,2013-03-15 07:26:00,
2013-03-15 03:31:00,21.0,11.5,29.87,NW,316,5.0,11.0,66,0.00,,,0.00,WeatherCatV1.02B3,2013-03-15 07:31:00,
2013-03-15 03:36:00,20.9,11.4,29.87,WNW,285,3.0,7.0,66,0.00,,,0.00,WeatherCatV1.02B3,2013-03-15 07:36:00,
2013-03-15 03:41:00,20.9,11.4,29.87,WNW,302,1.0,8.0,66,0.00,,,0.00,WeatherCatV1.02B3,2013-03-15 07:41:00,
2013-03-15 03:46:00,20.8,11.3,29.87,West,281,0.0,7.0,66,0.00,,,0.00,WeatherCatV1.02B3,2013-03-15 07:46:00,
2013-03-15 03:51:00,20.7,11.2,29.87,WNW,297,1.0,4.0,66,0.00,,,0.00,WeatherCatV1.02B3,2013-03-15 07:51:00,
2013-03-15 03:56:00,20.7,11.2,29.87,NW,317,2.0,10.0,66,0.00,,,0.00,WeatherCatV1.02B3,2013-03-15 07:56:00,
2013-03-15 04:01:00,20.7,11.2,29.87,WNW,300,3.0,13.0,66,0.00,,,0.00,WeatherCatV1.02B3,2013-03-15 08:01:00,
2013-03-15 04:06:00,20.7,11.2,29.87,NW,307,0.0,6.0,66,0.00,,,0.00,WeatherCatV1.02B3,2013-03-15 08:06:00,
2013-03-15 04:11:00,20.6,11.1,29.87,WNW,294,0.0,8.0,66,0.00,,,0.00,WeatherCatV1.02B3,2013-03-15 08:11:00,
2013-03-15 04:16:00,20.5,11.3,29.87,NNW,344,0.0,7.0,67,0.00,,,0.00,WeatherCatV1.02B3,2013-03-15 08:16:00,
2013-03-15 04:21:00,20.5,11.3,29.87,West,265,8.0,11.0,67,0.00,,,0.00,WeatherCatV1.02B3,2013-03-15 08:21:00,
2013-03-15 04:26:00,20.5,11.3,29.87,NNW,332,1.0,7.0,67,0.00,,,0.00,WeatherCatV1.02B3,2013-03-15 08:26:00,
2013-03-15 04:31:00,20.4,11.2,29.87,WNW,302,12.0,12.0,67,0.00,,,0.00,WeatherCatV1.02B3,2013-03-15 08:31:00,
2013-03-15 04:36:00,20.4,11.2,29.88,West,277,2.0,8.0,67,0.00,,,0.00,WeatherCatV1.02B3,2013-03-15 08:36:00,
2013-03-15 04:41:00,20.4,11.2,29.88,West,279,6.0,11.0,67,0.00,,,0.00,WeatherCatV1.02B3,2013-03-15 08:41:00,
2013-03-15 04:46:00,20.3,11.1,29.88,WNW,286,8.0,8.0,67,0.00,,,0.00,WeatherCatV1.02B3,2013-03-15 08:46:00,
2013-03-15 04:51:00,20.2,11.0,29.88,WNW,290,4.0,9.0,67,0.00,,,0.00,WeatherCatV1.02B3,2013-03-15 08:51:00,
2013-03-15 04:56:00,20.0,11.2,29.88,WNW,284,0.0,6.0,68,0.00,,,0.00,WeatherCatV1.02B3,2013-03-15 08:56:00,
2013-03-15 05:01:00,19.9,10.7,29.88,WNW,284,9.0,15.0,67,0.00,,,0.00,WeatherCatV1.02B3,2013-03-15 09:01:00,
2013-03-15 05:06:00,19.9,10.7,29.88,WNW,285,0.0,6.0,67,0.00,,,0.00,WeatherCatV1.02B3,2013-03-15 09:06:00,
2013-03-15 05:11:00,19.8,10.3,29.89,NNW,327,4.0,8.0,66,0.00,,,0.00,WeatherCatV1.02B3,2013-03-15 09:11:00,
2013-03-15 05:16:00,19.7,10.2,29.89,West,281,3.0,6.0,66,0.00,,,0.00,WeatherCatV1.02B3,2013-03-15 09:16:00,
2013-03-15 05:21:00,19.6,10.1,29.89,West,281,1.0,5.0,66,0.00,,,0.00,WeatherCatV1.02B3,2013-03-15 09:21:00,
2013-03-15 05:26:00,19.6,9.8,29.89,West,281,4.0,10.0,65,0.00,,,0.00,WeatherCatV1.02B3,2013-03-15 09:26:00,
2013-03-15 05:31:00,19.5,9.7,29.89,NW,317,4.0,7.0,65,0.00,,,0.00,WeatherCatV1.02B3,2013-03-15 09:31:00,
2013-03-15 05:36:00,19.5,9.7,29.89,WNW,290,4.0,5.0,65,0.00,,,0.00,WeatherCatV1.02B3,2013-03-15 09:36:00,
2013-03-15 05:41:00,19.4,9.6,29.89,West,277,0.0,7.0,65,0.00,,,0.00,WeatherCatV1.02B3,2013-03-15 09:41:00,
2013-03-15 05:46:00,19.4,9.6,29.89,WNW,285,5.0,8.0,65,0.00,,,0.00,WeatherCatV1.02B3,2013-03-15 09:46:00,
2013-03-15 05:51:00,19.3,9.5,29.89,NW,306,6.0,10.0,65,0.00,,,0.00,WeatherCatV1.02B3,2013-03-15 09:51:00,
2013-03-15 05:56:00,19.3,9.5,29.90,West,277,0.0,4.0,65,0.00,,,0.00,WeatherCatV1.02B3,2013-03-15 09:56:00,
2013-03-15 06:01:00,19.1,9.6,29.90,NW,315,6.0,11.0,66,0.00,,,0.00,WeatherCatV1.02B3,2013-03-15 10:01:00,
2013-03-15 06:06:00,19.1,9.3,29.90,WNW,296,0.0,4.0,65,0.00,,,0.00,WeatherCatV1.02B3,2013-03-15 10:06:00,
2013-03-15 06:11:00,19.0,9.5,29.90,NNW,331,4.0,9.0,66,0.00,,,0.00,WeatherCatV1.02B3,2013-03-15 10:11:00,
2013-03-15 06:16:00,19.0,9.2,29.90,WNW,285,3.0,8.0,65,0.00,,,0.00,WeatherCatV1.02B3,2013-03-15 10:16:00,
2013-03-15 06:21:00,18.9,9.4,29.90,WNW,285,0.0,5.0,66,0.00,,,0.00,WeatherCatV1.02B3,2013-03-15 10:21:00,
2013-03-15 06:26:00,18.9,9.4,29.90,WNW,285,0.0,3.0,66,0.00,,,0.00,WeatherCatV1.02B3,2013-03-15 10:26:00,
2013-03-15 06:31:00,18.8,9.4,29.90,West,281,0.0,5.0,66,0.00,,,0.00,WeatherCatV1.02B3,2013-03-15 10:31:00,
2013-03-15 06:36:00,18.7,8.9,29.91,NW,314,0.0,7.0,65,0.00,,,0.00,WeatherCatV1.02B3,2013-03-15 10:36:00,
2013-03-15 06:41:00,18.6,9.2,29.90,NW,314,0.0,0.0,66,0.00,,,0.00,WeatherCatV1.02B3,2013-03-15 10:41:00,
2013-03-15 06:46:00,18.5,9.1,29.91,WNW,284,4.0,6.0,66,0.00,,,0.00,WeatherCatV1.02B3,2013-03-15 10:46:00,
2013-03-15 06:51:00,18.5,9.4,29.91,WNW,284,1.0,3.0,67,0.00,,,0.00,WeatherCatV1.02B3,2013-03-15 10:51:00,
2013-03-15 06:56:00,18.4,9.3,29.91,WNW,285,1.0,5.0,67,0.00,,,0.00,WeatherCatV1.02B3,2013-03-15 10:56:00,
2013-03-15 07:01:00,18.5,9.1,29.91,NW,309,0.0,5.0,66,0.00,,,0.00,WeatherCatV1.02B3,2013-03-15 11:01:00,
2013-03-15 07:06:00,18.5,9.4,29.91,West,277,0.0,3.0,67,0.00,,,0.00,WeatherCatV1.02B3,2013-03-15 11:06:00,
2013-03-15 07:11:00,18.4,9.3,29.91,WNW,284,2.0,7.0,67,0.00,,,0.00,WeatherCatV1.02B3,2013-03-15 11:11:00,
2013-03-15 07:16:00,18.5,9.4,29.91,WNW,302,0.0,5.0,67,0.00,,,0.00,WeatherCatV1.02B3,2013-03-15 11:16:00,
2013-03-15 07:21:00,18.5,9.4,29.92,West,269,0.0,5.0,67,0.00,,,0.00,WeatherCatV1.02B3,2013-03-15 11:21:00,
2013-03-15 07:26:00,18.6,9.5,29.91,NW,325,3.0,5.0,67,0.00,,,0.00,WeatherCatV1.02B3,2013-03-15 11:26:00,
2013-03-15 07:31:00,18.6,9.5,29.91,WNW,286,0.0,7.0,67,0.00,,,0.00,WeatherCatV1.02B3,2013-03-15 11:31:00,
2013-03-15 07:36:00,18.9,9.4,29.91,West,273,0.0,7.0,66,0.00,,,0.00,WeatherCatV1.02B3,2013-03-15 11:36:00,
2013-03-15 07:41:00,19.0,9.5,29.91,West,271,5.0,7.0,66,0.00,,,0.00,WeatherCatV1.02B3,2013-03-15 11:41:00,
2013-03-15 07:46:00,19.1,9.6,29.91,West,278,2.0,2.0,66,0.00,,,0.00,WeatherCatV1.02B3,2013-03-15 11:46:00,
2013-03-15 07:51:00,19.3,9.8,29.91,WNW,290,0.0,5.0,66,0.00,,,0.00,WeatherCatV1.02B3,2013-03-15 11:51:00,
2013-03-15 07:56:00,19.4,9.6,29.91,West,273,8.0,9.0,65,0.00,,,0.00,WeatherCatV1.02B3,2013-03-15 11:56:00,
2013-03-15 08:01:00,19.5,9.7,29.91,NW,319,5.0,9.0,65,0.00,,,0.00,WeatherCatV1.02B3,2013-03-15 12:01:00,
2013-03-15 08:06:00,19.6,9.8,29.91,WNW,284,4.0,7.0,65,0.00,,,0.00,WeatherCatV1.02B3,2013-03-15 12:06:00,
2013-03-15 08:11:00,19.8,9.6,29.91,WNW,282,5.0,9.0,64,0.00,,,0.00,WeatherCatV1.02B3,2013-03-15 12:11:00,
2013-03-15 08:16:00,20.1,9.9,29.91,WNW,300,2.0,8.0,64,0.00,,,0.00,WeatherCatV1.02B3,2013-03-15 12:16:00,
2013-03-15 08:21:00,20.4,9.8,29.91,WNW,298,2.0,9.0,63,0.00,,,0.00,WeatherCatV1.02B3,2013-03-15 12:21:00,
2013-03-15 08:26:00,20.6,9.7,29.91,WNW,292,4.0,8.0,62,0.00,,,0.00,WeatherCatV1.02B3,2013-03-15 12:26:00,
2013-03-15 08:31:00,20.6,9.7,29.91,WNW,288,2.0,7.0,62,0.00,,,0.00,WeatherCatV1.02B3,2013-03-15 12:31:00,
2013-03-15 08:36:00,20.8,9.9,29.91,West,279,3.0,6.0,62,0.00,,,0.00,WeatherCatV1.02B3,2013-03-15 12:36:00,
2013-03-15 08:41:00,21.1,10.1,29.91,WNW,290,2.0,7.0,62,0.00,,,0.00,WeatherCatV1.02B3,2013-03-15 12:41:00,
2013-03-15 08:46:00,21.2,9.9,29.91,West,271,6.0,13.0,61,0.00,,,0.00,WeatherCatV1.02B3,2013-03-15 12:46:00,
2013-03-15 08:51:00,21.3,10.0,29.91,West,263,1.0,7.0,61,0.00,,,0.00,WeatherCatV1.02B3,2013-03-15 12:51:00,
2013-03-15 08:56:00,21.7,10.4,29.91,WNW,286,0.0,2.0,61,0.00,,,0.00,WeatherCatV1.02B3,2013-03-15 12:56:00,
2013-03-15 09:01:00,22.1,10.4,29.91,NNE,28,0.0,6.0,60,0.00,,,0.00,WeatherCatV1.02B3,2013-03-15 13:01:00,
2013-03-15 09:06:00,22.5,10.0,29.91,WNW,283,7.0,11.0,58,0.00,,,0.00,WeatherCatV1.02B3,2013-03-15 13:06:00,
2013-03-15 09:11:00,22.4,9.9,29.91,West,272,3.0,9.0,58,0.00,,,0.00,WeatherCatV1.02B3,2013-03-15 13:11:00,
2013-03-15 09:16:00,22.5,10.0,29.91,WNW,296,6.0,8.0,58,0.00,,,0.00,WeatherCatV1.02B3,2013-03-15 13:16:00,
2013-03-15 09:21:00,22.8,9.9,29.91,WNW,284,8.0,8.0,57,0.00,,,0.00,WeatherCatV1.02B3,2013-03-15 13:21:00,
2013-03-15 09:26:00,23.0,9.7,29.91,West,275,3.0,5.0,56,0.00,,,0.00,WeatherCatV1.02B3,2013-03-15 13:26:00,
2013-03-15 09:31:00,23.2,9.9,29.90,West,275,0.0,6.0,56,0.00,,,0.00,WeatherCatV1.02B3,2013-03-15 13:31:00,
2013-03-15 09:36:00,23.5,10.9,29.90,WNW,284,2.0,5.0,58,0.00,,,0.00,WeatherCatV1.02B3,2013-03-15 13:36:00,
2013-03-15 09:41:00,24.2,10.4,29.90,West,267,4.0,7.0,55,0.00,,,0.00,WeatherCatV1.02B3,2013-03-15 13:41:00,
2013-03-15 09:46:00,24.3,10.9,29.90,West,278,2.0,8.0,56,0.00,,,0.00,WeatherCatV1.02B3,2013-03-15 13:46:00,
2013-03-15 09:51:00,24.9,11.5,29.89,NNE,19,0.0,5.0,56,0.00,,,0.00,WeatherCatV1.02B3,2013-03-15 13:51:00,
2013-03-15 09:56:00,25.5,10.8,29.89,West,275,0.0,6.0,53,0.00,,,0.00,WeatherCatV1.02B3,2013-03-15 13:56:00,
2013-03-15 10:01:00,25.7,10.5,29.89,West,273,0.0,5.0,52,0.00,,,0.00,WeatherCatV1.02B3,2013-03-15 14:01:00,
2013-03-15 10:06:00,25.8,10.2,29.88,West,265,12.0,13.0,51,0.00,,,0.00,WeatherCatV1.02B3,2013-03-15 14:06:00,
2013-03-15 10:11:00,25.6,9.6,29.88,West,281,3.0,5.0,50,0.00,,,0.00,WeatherCatV1.02B3,2013-03-15 14:11:00,
2013-03-15 10:16:00,25.7,9.7,29.88,WNW,290,8.0,9.0,50,0.00,,,0.00,WeatherCatV1.02B3,2013-03-15 14:16:00,
2013-03-15 10:21:00,26.1,10.5,29.88,West,277,0.0,6.0,51,0.00,,,0.00,WeatherCatV1.02B3,2013-03-15 14:21:00,
2013-03-15 10:26:00,26.4,9.4,29.88,West,281,12.0,12.0,48,0.00,,,0.00,WeatherCatV1.02B3,2013-03-15 14:26:00,
2013-03-15 10:31:00,26.2,9.2,29.87,WNW,296,0.0,7.0,48,0.00,,,0.00,WeatherCatV1.02B3,2013-03-15 14:31:00,
2013-03-15 10:36:00,26.7,8.7,29.87,WNW,294,2.0,10.0,46,0.00,,,0.00,WeatherCatV1.02B3,2013-03-15 14:36:00,
2013-03-15 10:41:00,27.4,9.9,29.87,West,261,6.0,16.0,47,0.00,,,0.00,WeatherCatV1.02B3,2013-03-15 14:41:00,
2013-03-15 10:46:00,27.5,9.5,29.87,WSW,243,5.0,12.0,46,0.00,,,0.00,WeatherCatV1.02B3,2013-03-15 14:46:00,
2013-03-15 10:51:00,27.7,8.7,29.87,West,281,10.0,12.0,44,0.00,,,0.00,WeatherCatV1.02B3,2013-03-15 14:51:00,
2013-03-15 10:56:00,27.9,8.8,29.86,West,281,10.0,13.0,44,0.00,,,0.00,WeatherCatV1.02B3,2013-03-15 14:56:00,
2013-03-15 11:01:00,28.5,8.9,29.86,SW,226,5.0,10.0,43,0.00,,,0.00,WeatherCatV1.02B3,2013-03-15 15:01:00,
2013-03-15 11:06:00,28.8,8.6,29.86,WSW,256,4.0,12.0,42,0.00,,,0.00,WeatherCatV1.02B3,2013-03-15 15:06:00,
2013-03-15 11:11:00,28.9,8.2,29.85,WSW,250,7.0,12.0,41,0.00,,,0.00,WeatherCatV1.02B3,2013-03-15 15:11:00,
2013-03-15 11:16:00,28.7,8.0,29.85,NW,309,6.0,12.0,41,0.00,,,0.00,WeatherCatV1.02B3,2013-03-15 15:16:00,
2013-03-15 11:21:00,29.0,7.7,29.85,WNW,301,3.0,12.0,40,0.00,,,0.00,WeatherCatV1.02B3,2013-03-15 15:21:00,
2013-03-15 11:26:00,29.5,8.7,29.85,West,273,5.0,6.0,41,0.00,,,0.00,WeatherCatV1.02B3,2013-03-15 15:26:00,
2013-03-15 11:31:00,29.7,8.9,29.84,WNW,300,3.0,5.0,41,0.00,,,0.00,WeatherCatV1.02B3,2013-03-15 15:31:00,
2013-03-15 11:36:00,30.3,8.9,29.84,SW,215,2.0,5.0,40,0.00,,,0.00,WeatherCatV1.02B3,2013-03-15 15:36:00,
2013-03-15 11:41:00,30.6,8.0,29.84,WNW,293,8.0,8.0,38,0.00,,,0.00,WeatherCatV1.02B3,2013-03-15 15:41:00,
2013-03-15 11:46:00,30.6,7.5,29.84,SW,236,7.0,8.0,37,0.00,,,0.00,WeatherCatV1.02B3,2013-03-15 15:46:00,
2013-03-15 11:51:00,30.8,8.2,29.84,West,271,5.0,10.0,38,0.00,,,0.00,WeatherCatV1.02B3,2013-03-15 15:51:00,
2013-03-15 11:56:00,30.8,7.6,29.84,West,275,8.0,13.0,37,0.00,,,0.00,WeatherCatV1.02B3,2013-03-15 15:56:00,
2013-03-15 12:01:00,31.1,7.9,29.83,WNW,288,9.0,11.0,37,0.00,,,0.00,WeatherCatV1.02B3,2013-03-15 16:01:00,
2013-03-15 12:06:00,31.3,8.1,29.83,WNW,302,5.0,8.0,37,0.00,,,0.00,WeatherCatV1.02B3,2013-03-15 16:06:00,
2013-03-15 12:11:00,32.2,9.5,29.83,SW,216,5.0,7.0,38,0.00,,,0.00,WeatherCatV1.02B3,2013-03-15 16:11:00,
2013-03-15 12:16:00,32.8,8.2,29.82,SSW,193,5.0,7.0,35,0.00,,,0.00,WeatherCatV1.02B3,2013-03-15 16:16:00,
2013-03-15 12:21:00,33.0,8.4,29.82,SW,225,0.0,3.0,35,0.00,,,0.00,WeatherCatV1.02B3,2013-03-15 16:21:00,
2013-03-15 12:26:00,33.5,8.8,29.82,West,263,3.0,11.0,35,0.00,,,0.00,WeatherCatV1.02B3,2013-03-15 16:26:00,
2013-03-15 12:31:00,33.7,8.4,29.81,WSW,244,2.0,4.0,34,0.00,,,0.00,WeatherCatV1.02B3,2013-03-15 16:31:00,
2013-03-15 12:36:00,34.1,8.0,29.81,WSW,250,2.0,6.0,33,0.00,,,0.00,WeatherCatV1.02B3,2013-03-15 16:36:00,
2013-03-15 12:41:00,34.1,8.0,29.81,West,269,2.0,9.0,33,0.00,,,0.00,WeatherCatV1.02B3,2013-03-15 16:41:00,
2013-03-15 12:46:00,34.0,7.3,29.81,West,278,1.0,9.0,32,0.00,,,0.00,WeatherCatV1.02B3,2013-03-15 16:46:00,
2013-03-15 12:51:00,34.1,8.0,29.80,WSW,256,6.0,10.0,33,0.00,,,0.00,WeatherCatV1.02B3,2013-03-15 16:51:00,
2013-03-15 12:56:00,34.4,7.6,29.80,West,263,5.0,7.0,32,0.00,,,0.00,WeatherCatV1.02B3,2013-03-15 16:56:00,
2013-03-15 13:01:00,34.8,8.7,29.80,West,281,2.0,7.0,33,0.00,,,0.00,WeatherCatV1.02B3,2013-03-15 17:01:00,
2013-03-15 13:06:00,35.1,8.9,29.79,SSE,153,0.0,2.0,33,0.00,,,0.00,WeatherCatV1.02B3,2013-03-15 17:06:00,
2013-03-15 13:11:00,35.8,10.2,29.79,WNW,286,6.0,7.0,34,0.00,,,0.00,WeatherCatV1.02B3,2013-03-15 17:11:00,
2013-03-15 13:16:00,35.4,7.8,29.79,WSW,257,6.0,13.0,31,0.00,,,0.00,WeatherCatV1.02B3,2013-03-15 17:16:00,
2013-03-15 13:21:00,35.6,10.0,29.78,WSW,246,6.0,12.0,34,0.00,,,0.00,WeatherCatV1.02B3,2013-03-15 17:21:00,
2013-03-15 13:26:00,35.7,9.5,29.78,WNW,286,6.0,13.0,33,0.00,,,0.00,WeatherCatV1.02B3,2013-03-15 17:26:00,
2013-03-15 13:31:00,35.4,8.5,29.78,SW,219,10.0,17.0,32,0.00,,,0.00,WeatherCatV1.02B3,2013-03-15 17:31:00,
2013-03-15 13:36:00,35.6,8.7,29.77,SSW,206,6.0,16.0,32,0.00,,,0.00,WeatherCatV1.02B3,2013-03-15 17:36:00,
2013-03-15 13:41:00,36.0,9.7,29.77,West,265,8.0,13.0,33,0.00,,,0.00,WeatherCatV1.02B3,2013-03-15 17:41:00,
2013-03-15 13:46:00,35.5,8.6,29.77,West,273,5.0,9.0,32,0.00,,,0.00,WeatherCatV1.02B3,2013-03-15 17:46:00,
2013-03-15 13:51:00,34.9,9.4,29.76,WNW,289,5.0,5.0,34,0.00,,,0.00,WeatherCatV1.02B3,2013-03-15 17:51:00,
2013-03-15 13:56:00,35.0,10.8,29.76,West,277,3.0,7.0,36,0.00,,,0.00,WeatherCatV1.02B3,2013-03-15 17:56:00,
2013-03-15 14:01:00,34.9,9.4,29.75,West,265,3.0,10.0,34,0.00,,,0.00,WeatherCatV1.02B3,2013-03-15 18:01:00,
2013-03-15 14:06:00,34.6,9.1,29.75,WSW,240,5.0,10.0,34,0.00,,,0.00,WeatherCatV1.02B3,2013-03-15 18:06:00,
2013-03-15 14:11:00,35.0,10.1,29.74,WNW,299,7.0,8.0,35,0.00,,,0.00,WeatherCatV1.02B3,2013-03-15 18:11:00,
2013-03-15 14:16:00,35.4,10.5,29.74,WNW,284,4.0,15.0,35,0.00,,,0.00,WeatherCatV1.02B3,2013-03-15 18:16:00,
2013-03-15 14:21:00,35.8,10.2,29.74,SW,236,8.0,10.0,34,0.00,,,0.00,WeatherCatV1.02B3,2013-03-15 18:21:00,
2013-03-15 14:26:00,35.8,11.5,29.74,SW,228,10.0,10.0,36,0.00,,,0.00,WeatherCatV1.02B3,2013-03-15 18:26:00,
2013-03-15 14:31:00,35.9,10.9,29.73,WNW,283,7.0,11.0,35,0.00,,,0.00,WeatherCatV1.02B3,2013-03-15 18:31:00,
2013-03-15 14:36:00,36.5,11.5,29.73,West,262,10.0,10.0,35,0.00,,,0.00,WeatherCatV1.02B3,2013-03-15 18:36:00,
2013-03-15 14:41:00,36.9,10.5,29.73,WNW,286,3.0,13.0,33,0.00,,,0.00,WeatherCatV1.02B3,2013-03-15 18:41:00,
2013-03-15 14:46:00,37.2,12.1,29.73,SSW,207,7.0,15.0,35,0.00,,,0.00,WeatherCatV1.02B3,2013-03-15 18:46:00,
2013-03-15 14:51:00,37.5,13.6,29.72,SSW,212,10.0,13.0,37,0.00,,,0.00,WeatherCatV1.02B3,2013-03-15 18:51:00,
2013-03-15 14:57:00,37.5,13.0,29.72,WSW,248,6.0,11.0,36,0.00,,,0.00,WeatherCatV1.02B3,2013-03-15 18:57:00,
2013-03-15 15:02:00,37.8,13.3,29.73,SW,217,10.0,14.0,36,0.00,,,0.00,WeatherCatV1.02B3,2013-03-15 19:02:00,
2013-03-15 15:07:00,37.9,14.0,29.72,NW,309,9.0,12.0,37,0.00,,,0.00,WeatherCatV1.02B3,2013-03-15 19:07:00,
2013-03-15 15:12:00,38.3,14.3,29.72,WNW,292,5.0,6.0,37,0.00,,,0.00,WeatherCatV1.02B3,2013-03-15 19:12:00,
2013-03-15 15:17:00,38.8,14.8,29.72,West,273,7.0,15.0,37,0.00,,,0.00,WeatherCatV1.02B3,2013-03-15 19:17:00,
2013-03-15 15:22:00,38.7,14.7,29.72,West,272,7.0,10.0,37,0.00,,,0.00,WeatherCatV1.02B3,2013-03-15 19:22:00,
2013-03-15 15:27:00,38.5,16.3,29.72,WSW,248,3.0,6.0,40,0.00,,,0.00,WeatherCatV1.02B3,2013-03-15 19:27:00,
2013-03-15 15:32:00,38.2,15.4,29.72,WSW,252,4.0,8.0,39,0.00,,,0.00,WeatherCatV1.02B3,2013-03-15 19:32:00,
2013-03-15 15:37:00,38.2,15.4,29.71,WSW,250,1.0,8.0,39,0.00,,,0.00,WeatherCatV1.02B3,2013-03-15 19:37:00,
2013-03-15 15:42:00,38.5,16.3,29.71,WNW,293,0.0,8.0,40,0.00,,,0.00,WeatherCatV1.02B3,2013-03-15 19:42:00,
2013-03-15 15:47:00,38.7,15.9,29.71,SW,228,6.0,9.0,39,0.00,,,0.00,WeatherCatV1.02B3,2013-03-15 19:47:00,
2013-03-15 15:52:00,38.6,15.8,29.71,WNW,287,6.0,9.0,39,0.00,,,0.00,WeatherCatV1.02B3,2013-03-15 19:52:00,
2013-03-15 15:57:00,38.8,16.0,29.70,SW,230,8.0,16.0,39,0.00,,,0.00,WeatherCatV1.02B3,2013-03-15 19:57:00,
2013-03-15 16:02:00,38.7,15.3,29.70,SSW,199,4.0,12.0,38,0.00,,,0.00,WeatherCatV1.02B3,2013-03-15 20:02:00,
2013-03-15 16:07:00,38.7,15.9,29.70,SW,235,8.0,12.0,39,0.00,,,0.00,WeatherCatV1.02B3,2013-03-15 20:07:00,
2013-03-15 16:12:00,38.7,16.5,29.69,SW,227,14.0,17.0,40,0.00,,,0.00,WeatherCatV1.02B3,2013-03-15 20:12:00,
2013-03-15 16:17:00,38.8,16.0,29.69,SW,234,7.0,14.0,39,0.00,,,0.00,WeatherCatV1.02B3,2013-03-15 20:17:00,
2013-03-15 16:22:00,38.9,17.2,29.69,West,271,4.0,8.0,41,0.00,,,0.00,WeatherCatV1.02B3,2013-03-15 20:22:00,
2013-03-15 16:27:00,39.2,17.5,29.69,West,280,10.0,11.0,41,0.00,,,0.00,WeatherCatV1.02B3,2013-03-15 20:27:00,
2013-03-15 16:32:00,39.2,16.9,29.69,SW,231,9.0,15.0,40,0.00,,,0.00,WeatherCatV1.02B3,2013-03-15 20:32:00,
2013-03-15 16:37:00,39.2,16.9,29.68,WNW,303,3.0,16.0,40,0.00,,,0.00,WeatherCatV1.02B3,2013-03-15 20:37:00,
2013-03-15 16:42:00,39.1,17.4,29.68,West,281,4.0,10.0,41,0.00,,,0.00,WeatherCatV1.02B3,2013-03-15 20:42:00,
2013-03-15 16:47:00,39.0,17.3,29.67,SW,217,4.0,14.0,41,0.00,,,0.00,WeatherCatV1.02B3,2013-03-15 20:47:00,
2013-03-15 16:52:00,39.0,17.9,29.67,SW,235,8.0,17.0,42,0.00,,,0.00,WeatherCatV1.02B3,2013-03-15 20:52:00,
2013-03-15 16:57:00,38.9,18.3,29.67,SSW,196,4.0,6.0,43,0.00,,,0.00,WeatherCatV1.02B3,2013-03-15 20:57:00,
2013-03-15 17:02:00,38.8,19.3,29.67,SW,228,9.0,10.0,45,0.00,,,0.00,WeatherCatV1.02B3,2013-03-15 21:02:00,
2013-03-15 17:07:00,38.7,20.7,29.68,West,267,9.0,16.0,48,0.00,,,0.00,WeatherCatV1.02B3,2013-03-15 21:07:00,
2013-03-15 17:12:00,38.3,21.8,29.68,SSW,193,12.0,17.0,51,0.00,,,0.00,WeatherCatV1.02B3,2013-03-15 21:12:00,
2013-03-15 17:17:00,37.8,22.2,29.68,WNW,292,6.0,17.0,53,0.00,,,0.00,WeatherCatV1.02B3,2013-03-15 21:17:00,
2013-03-15 17:22:00,37.5,22.8,29.68,West,275,5.0,12.0,55,0.00,,,0.00,WeatherCatV1.02B3,2013-03-15 21:22:00,
2013-03-15 17:27:00,37.1,23.7,29.68,WSW,250,7.0,21.0,58,0.00,,,0.00,WeatherCatV1.02B3,2013-03-15 21:27:00,
2013-03-15 17:32:00,36.9,23.9,29.68,NW,304,7.0,10.0,59,0.00,,,0.00,WeatherCatV1.02B3,2013-03-15 21:32:00,
2013-03-15 17:37:00,36.8,24.2,29.68,SW,218,8.0,11.0,60,0.00,,,0.00,WeatherCatV1.02B3,2013-03-15 21:37:00,
2013-03-15 17:42:00,36.7,24.5,29.68,SW,232,6.0,19.0,61,0.00,,,0.00,WeatherCatV1.02B3,2013-03-15 21:42:00,
2013-03-15 17:47:00,36.7,24.9,29.68,SSW,201,3.0,11.0,62,0.00,,,0.00,WeatherCatV1.02B3,2013-03-15 21:47:00,
2013-03-15 17:52:00,36.6,24.8,29.68,WNW,283,4.0,13.0,62,0.00,,,0.00,WeatherCatV1.02B3,2013-03-15 21:52:00,
2013-03-15 17:57:00,36.6,25.2,29.68,WSW,253,2.0,9.0,63,0.00,,,0.00,WeatherCatV1.02B3,2013-03-15 21:57:00,
2013-03-15 18:02:00,36.6,25.6,29.68,SSW,198,5.0,5.0,64,0.00,,,0.00,WeatherCatV1.02B3,2013-03-15 22:02:00,
2013-03-15 18:07:00,36.6,25.2,29.68,WSW,238,11.0,11.0,63,0.00,,,0.00,WeatherCatV1.02B3,2013-03-15 22:07:00,
2013-03-15 18:12:00,36.6,25.2,29.67,West,275,3.0,8.0,63,0.00,,,0.00,WeatherCatV1.02B3,2013-03-15 22:12:00,
2013-03-15 18:17:00,36.6,25.2,29.67,SW,215,2.0,5.0,63,0.00,,,0.00,WeatherCatV1.02B3,2013-03-15 22:17:00,
2013-03-15 18:22:00,36.6,25.2,29.67,SSW,196,7.0,9.0,63,0.00,,,0.00,WeatherCatV1.02B3,2013-03-15 22:22:00,
2013-03-15 18:27:00,36.6,24.8,29.67,WSW,240,2.0,7.0,62,0.00,,,0.00,WeatherCatV1.02B3,2013-03-15 22:27:00,
2013-03-15 18:32:00,36.6,24.8,29.67,West,259,4.0,10.0,62,0.00,,,0.00,WeatherCatV1.02B3,2013-03-15 22:32:00,
2013-03-15 18:37:00,36.5,25.1,29.68,WNW,284,6.0,10.0,63,0.00,,,0.00,WeatherCatV1.02B3,2013-03-15 22:37:00,
2013-03-15 18:42:00,36.5,24.7,29.68,West,264,7.0,11.0,62,0.00,,,0.00,WeatherCatV1.02B3,2013-03-15 22:42:00,
2013-03-15 18:47:00,36.4,25.0,29.68,WSW,240,7.0,15.0,63,0.00,,,0.00,WeatherCatV1.02B3,2013-03-15 22:47:00,
2013-03-15 18:52:00,36.4,25.0,29.68,West,271,4.0,8.0,63,0.00,,,0.00,WeatherCatV1.02B3,2013-03-15 22:52:00,
2013-03-15 18:57:00,36.3,25.3,29.69,SW,221,5.0,14.0,64,0.00,,,0.00,WeatherCatV1.02B3,2013-03-15 22:57:00,
2013-03-15 19:02:00,36.3,25.3,29.69,SW,233,2.0,6.0,64,0.00,,,0.00,WeatherCatV1.02B3,2013-03-15 23:02:00,
2013-03-15 19:07:00,36.3,25.3,29.69,West,278,3.0,7.0,64,0.00,,,0.00,WeatherCatV1.02B3,2013-03-15 23:07:00,
2013-03-15 19:12:00,36.3,25.7,29.69,SSW,194,2.0,11.0,65,0.00,,,0.00,WeatherCatV1.02B3,2013-03-15 23:12:00,
2013-03-15 19:17:00,36.3,25.7,29.69,SW,216,3.0,5.0,65,0.00,,,0.00,WeatherCatV1.02B3,2013-03-15 23:17:00,
2013-03-15 19:22:00,36.3,25.7,29.69,SSW,213,7.0,8.0,65,0.00,,,0.00,WeatherCatV1.02B3,2013-03-15 23:22:00,
2013-03-15 19:27:00,36.3,26.0,29.69,SW,225,0.0,2.0,66,0.00,,,0.00,WeatherCatV1.02B3,2013-03-15 23:27:00,
2013-03-15 19:32:00,36.2,25.6,29.69,SW,228,10.0,10.0,65,0.00,,,0.00,WeatherCatV1.02B3,2013-03-15 23:32:00,
2013-03-15 19:37:00,36.3,26.0,29.69,SW,232,5.0,8.0,66,0.00,,,0.00,WeatherCatV1.02B3,2013-03-15 23:37:00,
2013-03-15 19:42:00,36.2,26.0,29.69,WSW,256,6.0,12.0,66,0.00,,,0.00,WeatherCatV1.02B3,2013-03-15 23:42:00,
2013-03-15 19:47:00,36.3,26.0,29.69,SW,230,3.0,14.0,66,0.00,,,0.00,WeatherCatV1.02B3,2013-03-15 23:47:00,
2013-03-15 19:52:00,36.3,26.4,29.69,West,260,8.0,8.0,67,0.00,,,0.00,WeatherCatV1.02B3,2013-03-15 23:52:00,
2013-03-15 19:57:00,36.3,26.4,29.69,West,275,0.0,2.0,67,0.00,,,0.00,WeatherCatV1.02B3,2013-03-15 23:57:00,
2013-03-15 20:02:00,36.3,26.4,29.69,WSW,256,6.0,9.0,67,0.00,,,0.00,WeatherCatV1.02B3,2013-03-16 00:02:00,
2013-03-15 20:07:00,36.2,27.4,29.69,West,274,5.0,9.0,70,0.00,,,0.00,WeatherCatV1.02B3,2013-03-16 00:07:00,
2013-03-15 20:12:00,36.1,27.3,29.69,West,271,5.0,6.0,70,0.00,,,0.00,WeatherCatV1.02B3,2013-03-16 00:12:00,
2013-03-15 20:17:00,36.0,27.5,29.69,WNW,284,6.0,10.0,71,0.00,,,0.00,WeatherCatV1.02B3,2013-03-16 00:17:00,
2013-03-15 20:22:00,35.9,27.4,29.70,WNW,284,5.0,5.0,71,0.00,,,0.00,WeatherCatV1.02B3,2013-03-16 00:22:00,
2013-03-15 20:27:00,35.8,27.3,29.69,West,265,5.0,7.0,71,0.00,,,0.00,WeatherCatV1.02B3,2013-03-16 00:27:00,
2013-03-15 20:32:00,35.9,27.4,29.70,SSW,204,5.0,9.0,71,0.00,,,0.00,WeatherCatV1.02B3,2013-03-16 00:32:00,
2013-03-15 20:37:00,35.8,27.3,29.70,SSW,196,3.0,15.0,71,0.00,,,0.00,WeatherCatV1.02B3,2013-03-16 00:37:00,
2013-03-15 20:42:00,35.8,27.3,29.70,South,184,5.0,14.0,71,0.00,,,0.00,WeatherCatV1.02B3,2013-03-16 00:42:00,
2013-03-15 20:47:00,35.7,27.2,29.70,West,281,2.0,15.0,71,0.00,,,0.00,WeatherCatV1.02B3,2013-03-16 00:47:00,
2013-03-15 20:52:00,35.6,27.5,29.70,WNW,283,7.0,15.0,72,0.00,,,0.00,WeatherCatV1.02B3,2013-03-16 00:52:00,
2013-03-15 20:57:00,35.4,27.6,29.69,WSW,250,2.0,8.0,73,0.00,,,0.00,WeatherCatV1.02B3,2013-03-16 00:57:00,
2013-03-15 21:02:00,35.3,27.5,29.69,West,277,4.0,12.0,73,0.00,,,0.00,WeatherCatV1.02B3,2013-03-16 01:02:00,
2013-03-15 21:07:00,35.1,27.7,29.69,WNW,282,11.0,11.0,74,0.00,,,0.00,WeatherCatV1.02B3,2013-03-16 01:07:00,
2013-03-15 21:12:00,35.0,27.6,29.69,West,280,4.0,9.0,74,0.00,,,0.00,WeatherCatV1.02B3,2013-03-16 01:12:00,
2013-03-15 21:17:00,34.8,27.7,29.69,SSW,211,5.0,10.0,75,0.00,,,0.00,WeatherCatV1.02B3,2013-03-16 01:17:00,
2013-03-15 21:22:00,34.6,27.5,29.69,SW,229,4.0,4.0,75,0.00,,,0.00,WeatherCatV1.02B3,2013-03-16 01:22:00,
2013-03-15 21:27:00,34.5,27.4,29.69,West,263,7.0,9.0,75,0.00,,,0.00,WeatherCatV1.02B3,2013-03-16 01:27:00,
2013-03-15 21:32:00,34.3,27.5,29.69,WSW,255,13.0,13.0,76,0.00,,,0.00,WeatherCatV1.02B3,2013-03-16 01:32:00,
2013-03-15 21:37:00,34.2,27.4,29.69,SSW,207,4.0,10.0,76,0.00,,,0.00,WeatherCatV1.02B3,2013-03-16 01:37:00,
2013-03-15 21:42:00,34.1,27.7,29.69,WNW,285,4.0,6.0,77,0.00,,,0.00,WeatherCatV1.02B3,2013-03-16 01:42:00,
2013-03-15 21:47:00,33.9,27.5,29.69,WSW,254,9.0,9.0,77,0.00,,,0.00,WeatherCatV1.02B3,2013-03-16 01:47:00,
2013-03-15 21:52:00,33.8,27.4,29.69,South,191,4.0,5.0,77,0.00,,,0.00,WeatherCatV1.02B3,2013-03-16 01:52:00,
2013-03-15 21:57:00,33.7,27.6,29.69,NW,311,6.0,10.0,78,0.00,,,0.00,WeatherCatV1.02B3,2013-03-16 01:57:00,
2013-03-15 22:02:00,33.6,27.5,29.69,WNW,296,6.0,9.0,78,0.00,,,0.00,WeatherCatV1.02B3,2013-03-16 02:02:00,
2013-03-15 22:07:00,33.7,27.6,29.69,West,266,7.0,16.0,78,0.00,,,0.00,WeatherCatV1.02B3,2013-03-16 02:07:00,
2013-03-15 22:12:00,33.8,27.7,29.70,West,275,8.0,14.0,78,0.00,,,0.00,WeatherCatV1.02B3,2013-03-16 02:12:00,
2013-03-15 22:17:00,33.8,27.7,29.70,NW,307,4.0,13.0,78,0.00,,,0.00,WeatherCatV1.02B3,2013-03-16 02:17:00,
2013-03-15 22:22:00,33.7,27.9,29.70,WNW,290,4.0,9.0,79,0.00,,,0.00,WeatherCatV1.02B3,2013-03-16 02:22:00,
2013-03-15 22:27:00,33.5,28.0,29.70,West,281,3.0,9.0,80,0.00,,,0.00,WeatherCatV1.02B3,2013-03-16 02:27:00,
2013-03-15 22:32:00,33.3,28.1,29.70,WNW,290,6.0,6.0,81,0.00,,,0.00,WeatherCatV1.02B3,2013-03-16 02:32:00,
2013-03-15 22:37:00,33.2,28.3,29.70,WNW,282,4.0,9.0,82,0.00,,,0.00,WeatherCatV1.02B3,2013-03-16 02:37:00,
2013-03-15 22:42:00,33.1,28.2,29.70,WNW,284,8.0,14.0,82,0.00,,,0.00,WeatherCatV1.02B3,2013-03-16 02:42:00,
2013-03-15 22:47:00,33.1,28.5,29.70,WNW,283,9.0,9.0,83,0.00,,,0.00,WeatherCatV1.02B3,2013-03-16 02:47:00,
2013-03-15 22:53:00,33.1,28.5,29.71,WSW,255,2.0,2.0,83,0.00,,,0.00,WeatherCatV1.02B3,2013-03-16 02:53:00,
2013-03-15 22:58:00,33.0,28.4,29.70,SSW,200,4.0,9.0,83,0.00,,,0.00,WeatherCatV1.02B3,2013-03-16 02:58:00,
2013-03-15 23:03:00,32.9,28.3,29.70,NW,324,6.0,17.0,83,0.00,,,0.00,WeatherCatV1.02B3,2013-03-16 03:03:00,
2013-03-15 23:08:00,32.9,28.3,29.70,WNW,300,6.0,11.0,83,0.00,,,0.00,WeatherCatV1.02B3,2013-03-16 03:08:00,
2013-03-15 23:13:00,32.8,28.2,29.70,SW,223,5.0,9.0,83,0.00,,,0.00,WeatherCatV1.02B3,2013-03-16 03:13:00,
2013-03-15 23:18:00,32.7,28.4,29.71,West,261,5.0,13.0,84,0.00,,,0.00,WeatherCatV1.02B3,2013-03-16 03:18:00,
2013-03-15 23:23:00,32.6,28.3,29.70,WNW,287,4.0,5.0,84,0.00,,,0.00,WeatherCatV1.02B3,2013-03-16 03:23:00,
2013-03-15 23:28:00,32.5,28.5,29.71,SW,215,4.0,9.0,85,0.00,,,0.00,WeatherCatV1.02B3,2013-03-16 03:28:00,
2013-03-15 23:33:00,32.4,28.4,29.70,NW,308,4.0,9.0,85,0.00,,,0.00,WeatherCatV1.02B3,2013-03-16 03:33:00,
2013-03-15 23:38:00,32.4,28.7,29.70,WNW,300,9.0,9.0,86,0.00,,,0.00,WeatherCatV1.02B3,2013-03-16 03:38:00,
2013-03-15 23:43:00,32.3,28.6,29.71,West,261,4.0,4.0,86,0.00,,,0.00,WeatherCatV1.02B3,2013-03-16 03:43:00,
2013-03-15 23:48:00,32.2,28.5,29.71,West,267,2.0,7.0,86,0.00,,,0.00,WeatherCatV1.02B3,2013-03-16 03:48:00,
2013-03-15 23:53:00,32.1,28.4,29.71,West,273,3.0,6.0,86,0.00,,,0.00,WeatherCatV1.02B3,2013-03-16 03:53:00,
2013-03-15 23:58:00,32.1,28.4,29.71,WNW,290,5.0,8.0,86,0.00,,,0.00,WeatherCatV1.02B3,2013-03-16 03:58:00,